Regional Weather Roundup
Issued by NWS Northern Indiana

Home | Current Version | Previous Version | Graphics & Text | Print | Product List | Glossary On
Versions: 1 2 3 4 5 6 7 8 9 10 11 12 13 14 15 16 17 18 19 20 21 22 23 24 25 26 27 28 29 30 31 32 33 34 35 36 37 38 39 40 41 42 43 44 45 46 47 48 49 50
000
ASUS43 KIWX 232100
RWRIWX

KIWX WEATHER ROUNDUP
NATIONAL WEATHER SERVICE NORTHERN INDIANA
500 PM EDT MON APR 23 2018

NOTE: "FAIR" INDICATES FEW OR NO CLOUDS BELOW 12,000 FEET WITH NO
SIGNIFICANT WEATHER AND/OR OBSTRUCTIONS TO VISIBILITY.

* THESE STATIONS ARE NOT UNDER NWS QUALITY CONTROL. THEY ALSO MAY NOT
  REPORT WEATHER SUCH AS PRECIPITATION OR FOG.

INZ001>027-232200-
NORTHERN INDIANA

CITY           SKY/WX    TMP DP  RH WIND       PRES   REMARKS
GARY*          CLOUDY    48  34  57 N10       30.12F
KNOX*          CLOUDY    61  50  67 S10       30.09S
SOUTH BEND     FAIR      68  44  42 SW10      30.08F
ELKHART*       FAIR      72  45  37 E14       30.07F
GOSHEN         FAIR      66  47  50 S21G31    30.09S
MONTICELLO*    RAIN      57  52  85 SE8G17    30.08S
ROCHESTER*     DRIZZLE   61  52  72 SE13      30.11S
WARSAW*        FAIR      61  50  67 S9G17     30.11R
FORT WAYNE     LGT RAIN  59  54  83 SE13      30.13S

$$
INZ028>050-232200-
CENTRAL INDIANA

CITY           SKY/WX    TMP DP  RH WIND       PRES   REMARKS
LAFAYETTE      LGT RAIN  55  54  96 E14       30.07S FOG
KOKOMO*        LGT RAIN  55  54  96 SE12      30.10F
MUNCIE*        LGT RAIN  58  54  86 SE14      30.10F
INDIANAPOLIS   CLOUDY    57  54  89 E12       30.05F

$$
MIZ043>046-050>051-056>058-064>065-071>073-077>080-232200-
SOUTHWEST LOWER MICHIGAN

CITY           SKY/WX    TMP DP  RH WIND       PRES   REMARKS
BATTLE CREEK   FAIR      73  41  31 SE8       30.10F
BENTON HARBOR  FAIR      68  37  32 N7        30.08F
COLDWATER*     FAIR      70  41  34 SE10G16   30.09F
HILLSDALE*     FAIR      68  41  37 E12G18    30.11S
HOLLAND        FAIR      73  40  30 NE9       30.09F
GRAND RAPIDS   PTSUNNY   72  40  31 NE9       30.11F
KALAMAZOO      FAIR      74  39  28 S12       30.09F
STURGIS*       FAIR      71  44  37 SE8G17    30.07F

$$
OHZ001>008-015>018-024>025-232200-
NORTHWEST OHIO

CITY           SKY/WX    TMP DP  RH WIND       PRES   REMARKS
WAUSEON*       FAIR      70  45  40 E16       30.12S
DEFIANCE       CLOUDY    67  49  52 S17G25    30.11
FINDLAY        LGT RAIN  65  47  52 S15       30.13S
TOLEDO EXPRESS FAIR      67  46  47 E14       30.12F
TOLEDO METCALF FAIR      62  44  51 NE8       30.14S
LIMA           LGT RAIN  57  54  89 S14       30.15S

$$
AND FOR LAKE MICHIGAN COASTAL AND OPEN LAKE BUOY OBSERVATIONS

STATION/POSITION TEMP    WIND        PRES    VSBY  WAVE
                 AIR SEA DIR/SP/G                  HT/PER
                 (F)     (DEG/KT/KT) (MB)    (MI)  (FT/S)
CALUMET HARBOR    46     330/ 16/ 20 1019.4
MICHIGAN CITY     42     240/  8/  8   N/A
BURNS HARBOR      42     270/  2/  4 1020.3F
SAINT JOSEPH      51     350/  5/  6 1020.0
4 MI NW BRIDGMAN  44 42   20/  8/ 10 1019.6F         1/ 3

$$
&&




USA.gov is the U.S. government's official web portal to all federal, state and local government web resources and services.